Hourly Data Report for June 22, 2021

OTTAWA INTL A
ONTARIO
Current Station Operator: NAVCAN

45°19'00.000" N
75°40'00.000" W
114.90 m
6106001
71628
YOW

Download Data

Hourly Data (June 2021)
Hourly Data Report for June 22, 2021
TIME
LST
Temp Definition
°C
Dew Point Definition
°C
Rel Hum Definition
%
Precip. Amount Definition
mm

Wind Dir Definition
10's deg

Wind Spd Definition
km/h
Visibility Definition
km
Stn Press Definition
kPa
Hmdx Definition


Wind Chill Definition


Weather Definition


00:00 17.6 12.7 73   29 28 24.1 98.79     LegendNANA
01:00 16.2 12.1 77   28 22 24.1 98.94     Mostly Cloudy
02:00 14.2 10.9 80   30 28 24.1 98.99     LegendNANA
03:00 12.7 9.1 79   30 31 24.1 99.09     LegendNANA
04:00 11.8 7.8 76   32 22 24.1 99.21     Mostly Cloudy
05:00 11.0 6.3 73   32 25 24.1 99.32     LegendNANA
06:00 10.5 6.1 74   31 28 24.1 99.40     LegendNANA
07:00 10.7 4.5 65   33 29 24.1 99.50     Mostly Cloudy
08:00 11.8 3.6 57   34 23 24.1 99.61     LegendNANA
09:00 13.6 4.5 54   31 23 24.1 99.62     LegendNANA
10:00 14.2 4.7 52   31 17 24.1 99.66     Mostly Cloudy
11:00 15.3 4.8 49   33 13 24.1 99.68     LegendNANA
12:00 15.3 6.0 53   26 9 24.1 99.69     LegendNANA
13:00 14.8 5.8 55   34 18 24.1 99.67     Mostly Cloudy
14:00 15.2 6.1 54   31 18 24.1 99.71     LegendNANA
15:00 15.1 6.0 54   30 13 24.1 99.71     LegendNANA
16:00 15.6 5.5 50   34 8 24.1 99.69     Mostly Cloudy
17:00 16.4 5.0 47   33 8 24.1 99.70     LegendNANA
18:00 15.7 5.8 51   26 8 24.1 99.75     LegendNANA
19:00 16.2 5.3 48   30 7 24.1 99.82     Mostly Cloudy
20:00 14.0 4.3 52   31 18 24.1 99.87     LegendNANA
21:00 11.9 4.8 62   31 11 24.1 99.96     LegendNANA
22:00 10.8 4.9 67   31 12 24.1 100.00     Mainly Clear
23:00 10.8 5.0 67   30 9 24.1 100.04     LegendNANA

Notes on Data Quality.

Legend

  • E = Estimated
  • M = Missing
  • NA = Not Available*
  • [empty] = Indicates an unobserved value
Date modified: